Location: TAAA CAC
(31.8680°N, 109.5150°W)
Time: 22:57:33
(UTC-07:00)

Hubble Space Telescope - Pass Details

Date: 26 February 2024
Orbit: 513 x 517 km, 28.5° (Epoch: 21 April)

Event Time Altitude Azimuth Distance (km) Brightness Sun altitude
Rises 20:14:59 0° 261° (W) 2,630 5.5 -26.5°
Reaches altitude 10° 20:17:16 10° 256° (WSW) 1,743 4.2 -27.0°
Enters shadow 20:19:38 31° 239° (WSW) 914 2.3 -27.5°
